Regional Weather Roundup
Issued by NWS

Home | Current Version | Previous Version | Text Only | Print | Product List | Glossary On
Versions: 1 2 3 4 5 6 7 8 9 10 11 12 13 14 15 16 17 18 19 20 21 22 23 24 25 26 27 28 29 30 31 32 33 34 35 36 37 38 39 40 41 42 43 44 45 46 47 48 49 50
471
ASUS44 KFWD 211010
RWRTX
NORTH TEXAS HOURLY WEATHER ROUNDUP
NATIONAL WEATHER SERVICE FORT WORTH TX
400 AM CST TUE NOV 21 2017

NOTE: "FAIR" INDICATES FEW OR NO CLOUDS BELOW 12,000 FEET WITH NO
SIGNIFICANT WEATHER AND/OR OBSTRUCTIONS TO VISIBILITY.

TXZ118-119-211100-
DALLAS/FORT WORTH METROPLEX

CITY           SKY/WX    TMP DP  RH WIND       PRES   REMARKS
DFW AIRPORT    MOCLDY    54  45  71 S14       29.82F
DALLAS LOVE    PTCLDY    51  43  74 S13       29.85F
FTW MEACHAM    CLEAR     49  38  65 SE8       29.83F
DAL-EXECUTIVE  CLEAR     48  43  82 SE8       29.85F
FTW-ALLIANCE   PTCLDY    48  38  68 S6        29.82F
FTW-NAS-JRB    CLEAR     51  35  54 SE10      29.84F
FTW-SPINKS     CLEAR     50  41  73 S7        29.86F
ARLINGTON      CLEAR     50  45  83 S10       29.85F
GRAND PRAIRIE  CLEAR     53  45  76 S8        29.86F
ADDISON        CLEAR     51  44  76 S9        29.86F
MESQUITE       CLEAR     48  45  88 S9        29.89F
LANCASTER      CLEAR     47  44  88 S5        29.89F
$$

TXZ091>094-102>105-117-120-121-131>134-211100-
NORTH CENTRAL TEXAS

CITY           SKY/WX    TMP DP  RH WIND       PRES   REMARKS
SHRMAN/DENISON CLEAR     47  40  76 SE13G18   29.83F
GAINESVILLE    CLOUDY    45  35  68 SE8       29.83F
BOWIE          CLOUDY    45  33  64 SE6       29.80S
BRIDGEPORT     PTCLDY    39  34  81 CALM      29.82F
DENTON         CLEAR     46  37  71 S8        29.82F
MCKINNEY       CLEAR     48  45  89 S10       29.86F
BONHAM         CLEAR    N/A N/A N/A S9        29.87F
GREENVILLE     CLEAR     52  48  87 S12       29.89F
ROCKWALL       CLEAR     49  47  90 S10       29.88F
TERRELL        CLEAR     51  47  86 S10       29.90F
WAXAHACHIE     CLEAR     46  43  90 CALM      29.89F
CLEBURNE       CLEAR     48  45  87 S13       29.86F
GRANBURY       CLOUDY    48  37  64 SE8       29.85F
$$

TXZ083>090-098>101-113>116-127>130-139>142-154-155-211100-
WESTERN NORTH TEXAS

CITY           SKY/WX    TMP DP  RH WIND       PRES   REMARKS
WICHITA FALLS  PTCLDY    42  33  70 S8        29.75F WCI  37
WF-KICKAPOO    CLOUDY    44  35  70 SE8       29.78S WCI  39
VERNON         CLOUDY    47  32  56 S6        29.76R
ABILENE        CLOUDY    51  36  56 SW15G23   29.78F
ABILENE-DYESS  PTCLDY    53  38  56 S14       29.76F
GRAHAM           N/A     48  36  63 SE6       29.76F
BRECKENRIDGE   CLOUDY    53  34  49 S14G20    29.78F
CISCO          CLOUDY    50  36  57 S14G20    29.81F
EASTLAND       CLOUDY    48  35  62 S6        29.80F
RANGER         CLOUDY    50  36  57 S12       29.81F
MINERAL WELLS  CLEAR     46  34  62 SE9       29.80F
STEPHENVILLE   CLOUDY    46  34  63 S7        29.86F
COMANCHE       CLOUDY    51  38  62 S5        29.85S
BROWNWOOD      PTCLDY    45  36  70 SE6       29.85F
COLEMAN        CLOUDY    43  35  71 SW5       29.84F
$$

TXZ143>147-156>162-174-175-211100-
CENTRAL TEXAS

CITY           SKY/WX    TMP DP  RH WIND       PRES   REMARKS
WACO           PTCLDY    51  48  89 SE8       29.89F
WACO-MCGREGOR  CLOUDY    53  49  86 S9        29.89F
HILLSBORO      PTCLDY    51  47  88 SE10      29.87F
CORSICANA      PTCLDY    47  46  97 S8        29.92F
MEXIA          CLOUDY    47  46  94 S8        29.91F
HEARNE         CLOUDY    51  50  99 SE5       29.95R
CAMERON        CLOUDY    49  47  95 S3        29.93R
TEMPLE         CLOUDY    48  47  96 SE9       29.90F
KILLEEN        CLOUDY    48  46  91 S9        29.86F
KILLEEN-SKYLRK PTCLDY    51  48  89 S6        29.88F
FORT HOOD      CLOUDY    51  47  87 S7        29.84F FOG
GATESVILLE     CLOUDY    50  45  81 SE6       29.89F
HAMILTON       CLOUDY    46  39  79 S9        29.87S
LAMPASAS       CLOUDY    53  49  87 S5        29.86F
$$

TXZ095>097-106>112-122>126-135>138-148>153-164>167-211100-
EAST TEXAS

CITY           SKY/WX    TMP DP  RH WIND       PRES   REMARKS
PARIS          CLEAR     41  38  89 SE8       29.90F WCI  36
SULPHUR SPRNGS CLEAR     52  46  82 S13G18    29.92F
MOUNT PLEASANT CLEAR     43  38  82 SE5       29.95F
GILMER         CLEAR     44  38  79 CALM      29.95S
MINEOLA        CLEAR     48  43  81 SE6       29.93S
TYLER          CLEAR     46  43  89 S8        29.93F
LONGVIEW       NOT AVBL
MARSHALL       CLEAR     39  36  88 CALM      29.98S
ATHENS         CLOUDY    45  41  87 S7        29.91F
PALESTINE      CLOUDY    47  44  89 SE3       29.95F
JACKSONVILLE   CLEAR     46  42  88 S9        29.96S
HENDERSON      CLEAR     42  39  88 CALM      29.97R
CENTER         SUNNY     38  36  94 CALM      29.98S
NACOGDOCHES    CLEAR     39  37  92 CALM      29.97F
LUFKIN         CLEAR     43  38  82 SE3       29.96S
$$

SUPPLEMENTAL OBSERVATIONS (NWS FORT WORTH AREA)

CITY           SKY/WX    TMP DP  RH WIND       PRES   REMARKS
CADDO GRASSLND   N/A     46  39  76 S7          N/A
LBJ GRASSLAND    N/A     52  34  50 SE8         N/A
POSSUM KINGDOM   N/A     50  36  57 SE7         N/A
GRANBURY         N/A     48  34  57 SE10        N/A
MCGREGOR         N/A     50  45  81 S12         N/A
TEMPLE           N/A     50  45  81 SE2         N/A
$$

SUPPLEMENTAL OBSERVATIONS (NWS NORMAN AREA)

CITY           SKY/WX    TMP DP  RH WIND       PRES   REMARKS
GOODLETT         N/A     40  31  71 N3        29.74F
ODELL            N/A     47  35  63 SE5       29.76R
CROWELL          N/A     42  32  66 SW6       29.75R WCI  39
KNOX CITY        N/A     48  34  58 S10       29.75S
SEYMOUR          N/A     43  34  70 SE6       29.76R WCI  40
MILLERS CREEK    N/A     48  36  61 S9          N/A
$$

SUPPLEMENTAL OBSERVATIONS (NWS SAN ANGELO AREA)

CITY           SKY/WX    TMP DP  RH WIND       PRES   REMARKS
WEINERT          N/A     50  35  56 SW12      29.75S
HASKELL          N/A     48  35  59 S12       29.76S
THROCKMORTON     N/A     47  36  63 S6        29.77S
STAMFORD         N/A     50  37  59 SW8       29.78S
CLYDE            N/A     51  36  55 S12       29.80F
HAMBY            N/A     52  36  54 S14         N/A
$$

SUPPLEMENTAL OBSERVATIONS (NWS SHREVEPORT AREA)

CITY           SKY/WX    TMP DP  RH WIND       PRES   REMARKS
TEXARKANA        N/A     36  34  93 CALM        N/A
LINDEN           N/A     37  32  81 CALM        N/A
LUFKIN           N/A     46  39  76 MISG        N/A
N SABINE NF      N/A     39  34  81 MISG        N/A
$$

SUPPLEMENTAL OBSERVATIONS ARE A COLLECTION OF AUTOMATED INSTRUMENTS
THAT ARE MAINTAINED BY A VARIETY OF FEDERAL AND STATE AGENCIES.
CERTAIN ELEMENTS...SUCH AS HUMIDITY VALUES AND SUSTAINED WIND
SPEEDS...MAY BE APPROXIMATED.





USA.gov is the U.S. government's official web portal to all federal, state and local government web resources and services.